[[{"header":{"parameterUnit":"m.s-1","parameterCategory":2,"la1":30.2991,"la2":30.254,"lo1":-89.0895,"lo2":-89.0444,"dy":0.0017,"dx":0.0017,"nx":28,"ny":28,"refTime":"2024-10-13T21:00:00:Z","depth":"0","parameterNumber":2,"parameterNumberName":"U-component_of_CURRENTS"},"data":[0,0,0,0,0,0,0,0,0,0,0,0,0,0,0,0,0,0,0,0,0,0,0,0,0,0,0,0,0,0,0,0,0,0,0,0,0,0,0,0,0,0,0,0,0,0,0,0,0,0,0,0,0,0,0,0,0,0,0.2809,0.2809,0,0.289,0.2891,0.2893,0.2954,0.2954,0.2955,0.2955,0.2976,0.2977,0.2977,0,0,0,0,0,0,0,0,0,0,0,0,0,0.2732,0.2733,0.2809,0.2809,0.281,0.289,0.2892,0.2893,0.2954,0.2954,0.2955,0.2955,0.2976,0.2977,0.2977,0,0,0,0,0,0,0,0,0,0,0,0,0,0.2786,0.2733,0.2808,0.2849,0.2853,0.289,0.2892,0.2893,0.2954,0.2954,0.2955,0.2955,0.2976,0.2977,0.2977,0.2967,0,0,0.2978,0.2978,0,0,0,0,0,0,0,0,0.2783,0.2789,0.2842,0.2846,0.2851,0.2911,0.2872,0.2914,0.2954,0.2918,0.2955,0.2956,0.2947,0.295,0.2968,0.2968,0.2969,0.2978,0.2978,0.2978,0.2978,0,0,0,0,0,0,0,0.2779,0.2786,0.2843,0.2843,0.2848,0.2872,0.288,0.2881,0.2928,0.2921,0.2925,0.2931,0.295,0.2967,0.2968,0.297,0.2978,0.2978,0.2978,0.2978,0.2942,0.294,0,0,0,0,0,0,0.2764,0.2783,0.284,0.2845,0.2816,0.2873,0.2882,0.2893,0.293,0.2936,0.293,0.2933,0.2966,0.2968,0.2969,0.298,0.2978,0.2978,0.2979,0.2943,0.2941,0.294,0,0,0,0,0,0,0.2762,0.2768,0.2837,0.2814,0.2824,0.2873,0.2885,0.2894,0.2906,0.2938,0.2943,0.2932,0.2967,0.2969,0.2963,0.298,0.2979,0.2979,0.2944,0.2942,0.2941,0.2988,0,0,0,0,0,0,0.2759,0.2767,0.2749,0.2813,0.2825,0.2843,0.2884,0.2895,0.2908,0.2913,0.294,0.2944,0.2968,0.2962,0.2963,0.2981,0.2979,0.2946,0.2943,0.2941,0.2988,0.2989,0.2989,0,0,0,0,0,0.2756,0.2723,0.2748,0.2754,0.2806,0.2842,0.285,0.2888,0.2907,0.2903,0.2926,0.2943,0.2949,0.2961,0.2963,0.2981,0.2947,0.2944,0.2941,0.2988,0.2988,0.2989,0,0,0,0,0,0,0.2704,0.2728,0.2757,0.274,0.2784,0.2851,0.284,0.2877,0.2895,0.2898,0.293,0.2934,0.2935,0.2933,0.2947,0.2957,0.2949,0.2946,0.2984,0.2984,0.2984,0.3005,0.2979,0,0,0,0,0,0.2679,0.2649,0.271,0.2701,0.2714,0.2778,0.2791,0.2831,0.2864,0.2874,0.2904,0.2917,0.2925,0.2934,0.2935,0.2941,0.2967,0.2948,0.2948,0.2949,0.2961,0.3007,0.3015,0.2931,0.2931,0.2931,0,0,0.2676,0.2668,0.2667,0.2684,0.272,0.2757,0.2787,0.281,0.2855,0.2869,0.2914,0.2913,0.292,0.2936,0.2936,0.2942,0.2983,0.2945,0.2947,0.2959,0.3005,0.3014,0.3022,0.293,0.293,0.293,0,0,0.2639,0.2634,0.2603,0.2632,0.2664,0.2713,0.2717,0.2788,0.2823,0.2862,0.2882,0.2895,0.2912,0.2939,0.2949,0.2941,0.2974,0.2926,0.2964,0.3008,0.3017,0.3025,0.3075,0.3087,0.2938,0.2938,0.2939,0,0.262,0.2606,0.2607,0.2601,0.2629,0.2695,0.2721,0.2772,0.284,0.2865,0.2874,0.2918,0.2925,0.2959,0.2965,0.295,0.2976,0.2974,0.3015,0.3023,0.3031,0.3079,0.3092,0.294,0.294,0.294,0.294,0,0.2583,0.2583,0.2569,0.2588,0.262,0.2642,0.2729,0.2769,0.282,0.2878,0.2916,0.294,0.2969,0.2971,0.2976,0.3022,0.3024,0.3007,0.303,0.3043,0.3092,0.3105,0.2943,0.2943,0.2942,0.2941,0,0,0.2502,0.2534,0.2526,0.2557,0.2614,0.2648,0.2715,0.2791,0.2835,0.2904,0.2958,0.2993,0.301,0.302,0.3027,0.3075,0.3156,0.307,0.3071,0.3146,0.3265,0.3246,0.3258,0.3152,0.3155,0.3156,0.3282,0,0.2472,0.2464,0.2488,0.254,0.257,0.265,0.2709,0.2791,0.2855,0.2921,0.2976,0.3015,0.303,0.304,0.3096,0.3131,0.3189,0.3124,0.3216,0.3219,0.3224,0.3272,0.3125,0.3223,0.3294,0.3296,0.3298,0,0.2425,0.2422,0.2449,0.2536,0.2553,0.2592,0.2689,0.2756,0.2861,0.291,0.2976,0.3017,0.3103,0.3099,0.3226,0.3184,0.3232,0.3268,0.3273,0.3251,0.3224,0.3215,0.3243,0.3145,0.3318,0.3316,0.3315,0,0.2373,0.2406,0.2423,0.245,0.2547,0.2573,0.2632,0.2735,0.2784,0.2898,0.2934,0.3045,0.3092,0.3186,0.3283,0.3257,0.3418,0.3387,0.3422,0.3422,0.3313,0.3298,0.3279,0.3479,0.3479,0.3479,0.3478,0,0.2338,0.2358,0.2393,0.241,0.2431,0.2526,0.2564,0.2646,0.2739,0.2792,0.2913,0.2968,0.3114,0.3222,0.3306,0.3421,0.3447,0.3451,0.346,0.3322,0.3308,0.3229,0.3182,0.3483,0.3482,0.3481,0.348,0,0.2297,0.2332,0.2348,0.2399,0.2412,0.2427,0.2501,0.2538,0.2643,0.2715,0.2752,0.292,0.3071,0.3221,0.3379,0.3437,0.3457,0.3578,0.3415,0.3402,0.3321,0.3282,0.3199,0.3122,0.3637,0.3638,0.3638,0,0.2262,0.2263,0.2292,0.229,0.2303,0.233,0.2354,0.2469,0.2512,0.2681,0.2712,0.2881,0.3005,0.3256,0.3391,0.3562,0.3452,0.3507,0.3428,0.3319,0.3282,0.3157,0.3089,0.3306,0.3304,0.3302,0.33,0,0.2171,0.2184,0.2193,0.2189,0.2197,0.2215,0.226,0.2284,0.2434,0.2507,0.2641,0.2756,0.3007,0.3123,0.3346,0.3432,0.3321,0.3471,0.339,0.3059,0.2888,0.2816,0.3231,0.3282,0.3284,0.3285,0.3286,0.3287,0.2069,0.2052,0.2066,0.2066,0.2084,0.2105,0.2095,0.2168,0.2234,0.2331,0.2497,0.2599,0.2816,0.3112,0.3193,0.3214,0.3224,0.3145,0.3124,0.3021,0.288,0.3271,0.3307,0.3309,0.331,0.3312,0.3313,0,0.1926,0.1947,0.1943,0.1956,0.1944,0.1995,0.2032,0.2011,0.2052,0.2171,0.2265,0.2411,0.2555,0.273,0.289,0.2862,0.2763,0.281,0.2577,0.2544,0.2922,0.2838,0.2732,0.2732,0.2732,0.2732,0.2732,0.2732,0.185,0.1823,0.1848,0.1808,0.1819,0.177,0.1771,0.1767,0.1817,0.1865,0.1916,0.2034,0.2326,0.2527,0.2553,0.2525,0.2358,0.2284,0.2314,0.255,0.2578,0.2604,0.2513,0.2341,0.2341,0.1813,0.1809,0.1806]},{"header":{"parameterUnit":"m.s-1","parameterCategory":2,"la1":30.2991,"la2":30.254,"lo1":-89.0895,"lo2":-89.0444,"dy":0.0017,"dx":0.0017,"nx":28,"ny":28,"refTime":"2024-10-13T21:00:00:Z","depth":"0","parameterNumber":3,"parameterNumberName":"V-component_of_CURRENTS"},"data":[0,0,0,0,0,0,0,0,0,0,0,0,0,0,0,0,0,0,0,0,0,0,0,0,0,0,0,0,0,0,0,0,0,0,0,0,0,0,0,0,0,0,0,0,0,0,0,0,0,0,0,0,0,0,0,0,0,0,-0.0735,-0.0735,0,-0.076,-0.0761,-0.0761,-0.0778,-0.0778,-0.0778,-0.0778,-0.0822,-0.0823,-0.0825,0,0,0,0,0,0,0,0,0,0,0,0,0,-0.0722,-0.0722,-0.0735,-0.0735,-0.0735,-0.076,-0.0761,-0.0761,-0.0778,-0.0778,-0.0778,-0.0778,-0.0822,-0.0823,-0.0825,0,0,0,0,0,0,0,0,0,0,0,0,0,-0.0737,-0.0722,-0.0735,-0.0745,-0.0746,-0.076,-0.0761,-0.0762,-0.0778,-0.0778,-0.0778,-0.0778,-0.0821,-0.0823,-0.0825,-0.0838,0,0,-0.0831,-0.0831,0,0,0,0,0,0,0,0,-0.0737,-0.0738,-0.0744,-0.0744,-0.0746,-0.0764,-0.0773,-0.0787,-0.0778,-0.0768,-0.0778,-0.0778,-0.0803,-0.0807,-0.0814,-0.084,-0.0842,-0.0831,-0.0832,-0.0833,-0.0833,0,0,0,0,0,0,0,-0.0735,-0.0737,-0.0747,-0.0744,-0.0745,-0.0756,-0.0758,-0.0776,-0.0788,-0.0769,-0.077,-0.077,-0.0804,-0.0812,-0.0815,-0.0843,-0.0831,-0.0832,-0.0833,-0.0834,-0.0855,-0.0855,0,0,0,0,0,0,-0.0728,-0.0736,-0.0746,-0.0747,-0.0739,-0.0756,-0.0758,-0.076,-0.0787,-0.079,-0.077,-0.077,-0.0809,-0.0813,-0.0817,-0.0808,-0.0833,-0.0834,-0.0835,-0.0856,-0.0855,-0.0855,0,0,0,0,0,0,-0.0727,-0.0728,-0.0745,-0.0741,-0.0743,-0.0756,-0.0758,-0.076,-0.0763,-0.0787,-0.0791,-0.0769,-0.0809,-0.0814,-0.0828,-0.081,-0.0835,-0.0837,-0.0856,-0.0856,-0.0855,-0.0806,0,0,0,0,0,0,-0.0727,-0.0728,-0.0715,-0.074,-0.0743,-0.0747,-0.0758,-0.0761,-0.0763,-0.0764,-0.0788,-0.0792,-0.081,-0.0825,-0.083,-0.0814,-0.0838,-0.0857,-0.0856,-0.0855,-0.0809,-0.0804,-0.08,0,0,0,0,0,-0.0726,-0.071,-0.0714,-0.0715,-0.0729,-0.0746,-0.0749,-0.0759,-0.0763,-0.0762,-0.0779,-0.0791,-0.0821,-0.0826,-0.0832,-0.0816,-0.0858,-0.0856,-0.0855,-0.0811,-0.0805,-0.08,0,0,0,0,0,0,-0.0719,-0.0711,-0.0716,-0.0704,-0.072,-0.0748,-0.0747,-0.0754,-0.0767,-0.0772,-0.0792,-0.0797,-0.08,-0.0817,-0.0822,-0.0818,-0.0839,-0.0838,-0.0803,-0.0798,-0.0793,-0.0766,-0.084,0,0,0,0,0,-0.0705,-0.0678,-0.0699,-0.0691,-0.0701,-0.0724,-0.0728,-0.074,-0.0759,-0.0765,-0.0777,-0.0791,-0.08,-0.0806,-0.082,-0.0824,-0.0825,-0.0815,-0.081,-0.0807,-0.0788,-0.0787,-0.078,-0.085,-0.085,-0.085,0,0,-0.0713,-0.0693,-0.0689,-0.0684,-0.0703,-0.0705,-0.0727,-0.0741,-0.0731,-0.0768,-0.0758,-0.0779,-0.0798,-0.0799,-0.0801,-0.081,-0.0787,-0.0805,-0.0802,-0.0785,-0.0785,-0.0778,-0.0771,-0.085,-0.085,-0.085,0,0,-0.0696,-0.0692,-0.0664,-0.0669,-0.0676,-0.0691,-0.0692,-0.0718,-0.0717,-0.0721,-0.0737,-0.0743,-0.0764,-0.0764,-0.0769,-0.0749,-0.0765,-0.0758,-0.0714,-0.0713,-0.0707,-0.0701,-0.0689,-0.0683,-0.0755,-0.0755,-0.0755,0,-0.0695,-0.0656,-0.0666,-0.0643,-0.0638,-0.0681,-0.0671,-0.068,-0.0699,-0.0685,-0.0711,-0.0716,-0.074,-0.0719,-0.0716,-0.0736,-0.0739,-0.0733,-0.0706,-0.0701,-0.0696,-0.0685,-0.0679,-0.0752,-0.0753,-0.0753,-0.0753,0,-0.0657,-0.0629,-0.0623,-0.0594,-0.0602,-0.06,-0.0623,-0.062,-0.063,-0.0631,-0.0617,-0.0653,-0.0649,-0.0662,-0.0687,-0.0659,-0.0673,-0.0702,-0.0717,-0.0686,-0.0677,-0.0671,-0.0749,-0.075,-0.0751,-0.0751,0,0,-0.0629,-0.0595,-0.0586,-0.0563,-0.0568,-0.0573,-0.0561,-0.0547,-0.0516,-0.0545,-0.0499,-0.0531,-0.055,-0.0557,-0.0588,-0.0593,-0.0572,-0.0633,-0.0634,-0.0615,-0.0562,-0.0544,-0.0536,-0.0603,-0.0602,-0.0601,-0.0567,0,-0.0584,-0.0515,-0.0516,-0.048,-0.046,-0.0487,-0.0465,-0.0464,-0.0462,-0.0433,-0.0461,-0.0448,-0.051,-0.0512,-0.0525,-0.0556,-0.0556,-0.0578,-0.0599,-0.0598,-0.0582,-0.0529,-0.0498,-0.0463,-0.0562,-0.0561,-0.056,0,-0.0531,-0.0479,-0.0425,-0.0393,-0.0391,-0.0381,-0.0346,-0.0336,-0.0316,-0.0315,-0.0314,-0.0339,-0.0342,-0.041,-0.0438,-0.0452,-0.0497,-0.053,-0.053,-0.0522,-0.0569,-0.0512,-0.045,-0.0557,-0.0552,-0.0553,-0.0553,0,-0.047,-0.0419,-0.036,-0.0351,-0.0329,-0.0307,-0.0304,-0.0287,-0.0259,-0.0239,-0.0211,-0.0233,-0.0233,-0.0293,-0.0365,-0.0404,-0.0391,-0.0455,-0.0475,-0.0475,-0.0454,-0.0453,-0.049,-0.0467,-0.0467,-0.0468,-0.0468,0,-0.04,-0.0354,-0.0324,-0.0289,-0.0231,-0.0251,-0.0191,-0.0189,-0.0159,-0.0099,-0.0149,-0.0103,-0.0208,-0.0219,-0.0308,-0.0353,-0.0347,-0.044,-0.0455,-0.0436,-0.0434,-0.0532,-0.0593,-0.0466,-0.0467,-0.0467,-0.0467,0,-0.0348,-0.032,-0.0258,-0.0215,-0.02,-0.0169,-0.0135,-0.0083,-0.0074,0.0005,0.0014,0.0007,-0.0004,-0.0093,-0.0168,-0.0261,-0.0358,-0.0344,-0.0305,-0.0316,-0.0453,-0.0512,-0.0522,-0.055,-0.0361,-0.036,-0.0359,0,-0.0305,-0.0264,-0.0207,-0.0167,-0.0144,-0.0098,-0.0051,-0.0041,0.0021,0.0086,0.0144,0.0151,0.0192,0.0097,-0.0058,-0.0175,-0.0294,-0.0251,-0.0324,-0.0427,-0.0505,-0.0547,-0.0574,-0.0279,-0.0277,-0.0276,-0.0275,0,-0.0231,-0.0221,-0.0177,-0.0088,-0.0032,0.0032,0.01,0.0162,0.0202,0.0279,0.0384,0.042,0.0329,0.024,0.0063,-0.0047,-0.0301,-0.0234,-0.0351,-0.0436,-0.047,-0.0516,-0.0336,-0.0266,-0.0267,-0.0268,-0.0268,-0.0269,-0.0187,-0.0148,-0.0085,-0.0005,0.0065,0.0181,0.0261,0.0349,0.0467,0.0605,0.0589,0.068,0.049,0.0262,0.0095,-0.0207,-0.023,-0.0323,-0.0382,-0.0412,-0.0447,-0.0235,-0.0182,-0.0183,-0.0183,-0.0184,-0.0184,0,-0.011,-0.0064,0.0009,0.0118,0.0223,0.0243,0.0385,0.0484,0.0657,0.0765,0.086,0.0841,0.0614,0.0331,-0.0066,-0.031,-0.0413,-0.0455,-0.0526,-0.0546,-0.0363,-0.0371,-0.0343,-0.0343,-0.0343,-0.0343,-0.0342,-0.0342,-0.0058,0.0028,0.0071,0.0259,0.0337,0.0499,0.0596,0.0732,0.0839,0.1016,0.1089,0.1119,0.095,0.0175,-0.0333,-0.0471,-0.0653,-0.0685,-0.0776,-0.0692,-0.0685,-0.0679,-0.0703,-0.0745,-0.0745,-0.0925,-0.0927,-0.0928]}],[{"header":{"parameterUnit":"m.s-1","parameterCategory":2,"la1":30.2991,"la2":30.254,"lo1":-89.0895,"lo2":-89.0444,"dy":0.0017,"dx":0.0017,"nx":28,"ny":28,"refTime":"2024-10-13T21:00:00:Z","depth":"2","parameterNumber":2,"parameterNumberName":"U-component_of_CURRENTS"},"data":[0,0,0,0,0,0,0,0,0,0,0,0,0,0,0,0,0,0,0,0,0,0,0,0,0,0,0,0,0,0,0,0,0,0,0,0,0,0,0,0,0,0,0,0,0,0,0,0,0,0,0,0,0,0,0,0,0,0,0.1504,0.1505,0,0.1529,0.1528,0.1528,0.155,0.1551,0.1552,0.1554,0.1697,0.17,0.1703,0,0,0,0,0,0,0,0,0,0,0,0,0,0.1551,0.1548,0.1504,0.1505,0.1506,0.1529,0.1528,0.1528,0.155,0.1551,0.1553,0.1554,0.1697,0.17,0.1703,0,0,0,0,0,0,0,0,0,0,0,0,0,0.1538,0.1548,0.1503,0.1528,0.1532,0.1529,0.1528,0.1527,0.1549,0.1551,0.1553,0.1555,0.1696,0.1699,0.1703,0.1689,0,0,0.1715,0.1717,0,0,0,0,0,0,0,0,0.1538,0.1534,0.1523,0.1527,0.1531,0.1548,0.1599,0.1591,0.1549,0.1531,0.1554,0.1556,0.1664,0.1671,0.1654,0.1696,0.1702,0.1716,0.1718,0.172,0.1721,0,0,0,0,0,0,0,0.1539,0.1534,0.1502,0.1525,0.1529,0.1566,0.1564,0.1596,0.158,0.1532,0.1537,0.1557,0.1666,0.165,0.1658,0.1704,0.1716,0.1719,0.1722,0.1723,0.178,0.1779,0,0,0,0,0,0,0.1552,0.1534,0.1502,0.1504,0.1552,0.1563,0.1561,0.1531,0.1577,0.1588,0.1555,0.1558,0.1642,0.1653,0.1663,0.1767,0.172,0.1723,0.1726,0.1781,0.178,0.1779,0,0,0,0,0,0,0.1551,0.1546,0.1501,0.1532,0.1531,0.1561,0.1527,0.1531,0.1559,0.1595,0.1607,0.1587,0.1644,0.1658,0.1673,0.1769,0.1725,0.1729,0.1782,0.178,0.1779,0.1901,0,0,0,0,0,0,0.1552,0.1544,0.1554,0.1531,0.153,0.1505,0.1527,0.1531,0.1571,0.1576,0.1625,0.1638,0.1646,0.1667,0.1677,0.1774,0.1732,0.1783,0.1781,0.178,0.1898,0.1904,0.1909,0,0,0,0,0,0.1552,0.1539,0.1552,0.1552,0.153,0.1506,0.1506,0.153,0.1572,0.1565,0.158,0.1638,0.1666,0.1668,0.1681,0.1782,0.1784,0.1782,0.178,0.1895,0.1903,0.1909,0,0,0,0,0,0,0.1517,0.154,0.1554,0.1536,0.1534,0.1515,0.1525,0.1553,0.1558,0.1576,0.1613,0.1623,0.1688,0.1678,0.1681,0.1778,0.1742,0.1742,0.1825,0.1832,0.1838,0.1855,0.1735,0,0,0,0,0,0.1526,0.1546,0.1542,0.1526,0.1527,0.1538,0.1549,0.1559,0.1559,0.1566,0.1612,0.1642,0.1679,0.1708,0.1726,0.177,0.1789,0.1837,0.1843,0.1848,0.1861,0.1963,0.1982,0.1772,0.1772,0.1772,0,0,0.1485,0.1526,0.1518,0.1529,0.1525,0.1534,0.1544,0.1549,0.1583,0.1583,0.1646,0.1674,0.1689,0.1738,0.177,0.1754,0.1905,0.1846,0.1852,0.1862,0.1964,0.1985,0.2005,0.1771,0.1771,0.1772,0,0,0.1461,0.1464,0.1492,0.1509,0.155,0.1544,0.156,0.157,0.1601,0.1618,0.1665,0.1725,0.175,0.181,0.1833,0.187,0.1934,0.1893,0.1954,0.2054,0.2075,0.2093,0.2113,0.2132,0.1897,0.1898,0.1898,0,0.1442,0.147,0.1486,0.1536,0.1561,0.1559,0.1579,0.1593,0.162,0.1676,0.164,0.1748,0.1786,0.1899,0.1914,0.1902,0.1932,0.1947,0.2072,0.209,0.2107,0.2123,0.2143,0.1903,0.1902,0.1902,0.1901,0,0.1485,0.1488,0.1494,0.1567,0.1578,0.1584,0.161,0.165,0.168,0.1725,0.1825,0.183,0.191,0.1942,0.1941,0.2106,0.2077,0.2079,0.2078,0.2138,0.2147,0.2166,0.1911,0.1909,0.1907,0.1906,0,0,0.1455,0.1522,0.1517,0.1552,0.1608,0.1605,0.1667,0.1733,0.1809,0.1836,0.1929,0.2009,0.2056,0.2081,0.2123,0.22,0.2348,0.2201,0.2203,0.2259,0.2528,0.2429,0.2439,0.2398,0.2403,0.2406,0.2477,0,0.1486,0.1571,0.1599,0.1622,0.1646,0.168,0.1746,0.1819,0.1852,0.1935,0.2,0.2081,0.2098,0.2144,0.2241,0.2322,0.2407,0.2324,0.2426,0.2427,0.2369,0.2463,0.2214,0.2252,0.2496,0.2499,0.2501,0,0.153,0.1591,0.1653,0.1688,0.1703,0.1732,0.1835,0.1905,0.2031,0.2065,0.2159,0.2184,0.2327,0.2291,0.2488,0.2442,0.2511,0.2543,0.2547,0.2432,0.2366,0.2233,0.2277,0.2532,0.253,0.2527,0.2525,0,0.1554,0.1591,0.1655,0.1681,0.1756,0.1804,0.1855,0.1975,0.2042,0.217,0.2205,0.2338,0.2413,0.2513,0.2617,0.2568,0.2794,0.2726,0.269,0.2679,0.2473,0.2438,0.2881,0.2881,0.2881,0.288,0.288,0,0.1605,0.1633,0.1671,0.1725,0.1787,0.1851,0.1939,0.2019,0.2124,0.2213,0.2308,0.2359,0.2487,0.2607,0.2662,0.2754,0.2856,0.2723,0.272,0.2496,0.2464,0.2706,0.2685,0.2883,0.2882,0.2882,0.2881,0,0.1627,0.1679,0.1722,0.1788,0.1809,0.1872,0.1943,0.2007,0.2146,0.2241,0.2283,0.2429,0.2594,0.2702,0.2865,0.2823,0.2897,0.2918,0.2609,0.2568,0.2673,0.2657,0.2804,0.2802,0.28,0.2798,0.2797,0,0.1657,0.1692,0.1737,0.1752,0.1783,0.1858,0.1913,0.2023,0.2071,0.2266,0.2304,0.2493,0.2593,0.2788,0.2752,0.2805,0.2954,0.261,0.2463,0.2698,0.268,0.2667,0.2653,0.2213,0.2207,0.2202,0.2198,0,0.1665,0.1681,0.1707,0.1755,0.1787,0.1815,0.1886,0.1907,0.2066,0.214,0.2263,0.2354,0.252,0.2456,0.2561,0.2551,0.2556,0.2504,0.291,0.2268,0.2147,0.2127,0.2132,0.2154,0.2159,0.2162,0.2164,0.2166,0.1627,0.1627,0.1663,0.1695,0.1733,0.1767,0.1763,0.1819,0.189,0.196,0.2094,0.2157,0.2191,0.2165,0.2168,0.2157,0.2284,0.2178,0.2191,0.221,0.2126,0.2009,0.1971,0.1974,0.1977,0.1979,0.1981,0,0.1551,0.1575,0.1594,0.163,0.1633,0.17,0.1733,0.1697,0.1717,0.1781,0.1824,0.1667,0.167,0.1806,0.166,0.1633,0.1602,0.1637,0.1575,0.1617,0.1656,0.1543,0.1233,0.1232,0.123,0.1229,0,0,0.1509,0.1511,0.1528,0.152,0.1548,0.1521,0.1516,0.1475,0.1478,0.143,0.1413,0.1472,0.1632,0.1339,0.1333,0.128,0.1441,0.124,0.1828,0.1791,0.1827,0.1948,0.182,0,0,0,0,0]},{"header":{"parameterUnit":"m.s-1","parameterCategory":2,"la1":30.2991,"la2":30.254,"lo1":-89.0895,"lo2":-89.0444,"dy":0.0017,"dx":0.0017,"nx":28,"ny":28,"refTime":"2024-10-13T21:00:00:Z","depth":"2","parameterNumber":3,"parameterNumberName":"V-component_of_CURRENTS"},"data":[0,0,0,0,0,0,0,0,0,0,0,0,0,0,0,0,0,0,0,0,0,0,0,0,0,0,0,0,0,0,0,0,0,0,0,0,0,0,0,0,0,0,0,0,0,0,0,0,0,0,0,0,0,0,0,0,0,0,-0.0109,-0.011,0,-0.0118,-0.0117,-0.0117,-0.0154,-0.0155,-0.0157,-0.0158,-0.0324,-0.0327,-0.033,0,0,0,0,0,0,0,0,0,0,0,0,0,-0.0124,-0.0123,-0.0109,-0.011,-0.0111,-0.0118,-0.0117,-0.0117,-0.0153,-0.0155,-0.0157,-0.0159,-0.0323,-0.0326,-0.033,0,0,0,0,0,0,0,0,0,0,0,0,0,-0.0117,-0.0123,-0.0109,-0.0135,-0.0138,-0.0118,-0.0117,-0.0116,-0.0153,-0.0155,-0.0157,-0.0159,-0.0322,-0.0326,-0.033,-0.0314,0,0,-0.0344,-0.0346,0,0,0,0,0,0,0,0,-0.0117,-0.0115,-0.013,-0.0133,-0.0136,-0.0143,-0.0184,-0.0193,-0.0152,-0.014,-0.0158,-0.0161,-0.0281,-0.0289,-0.0273,-0.0322,-0.0329,-0.0345,-0.0348,-0.0349,-0.0351,0,0,0,0,0,0,0,-0.0118,-0.0115,-0.0106,-0.0131,-0.0135,-0.0146,-0.0147,-0.0184,-0.0195,-0.0141,-0.0146,-0.0157,-0.0283,-0.0269,-0.0278,-0.0331,-0.0345,-0.0349,-0.0351,-0.0353,-0.0459,-0.0459,0,0,0,0,0,0,-0.0128,-0.0115,-0.0106,-0.0107,-0.014,-0.0145,-0.0145,-0.0133,-0.0192,-0.0203,-0.0155,-0.0158,-0.026,-0.0273,-0.0284,-0.0348,-0.0349,-0.0354,-0.0356,-0.0459,-0.0459,-0.0459,0,0,0,0,0,0,-0.0127,-0.0125,-0.0105,-0.0118,-0.0118,-0.0143,-0.0128,-0.0132,-0.0153,-0.0201,-0.0215,-0.0177,-0.0262,-0.0278,-0.032,-0.0353,-0.0356,-0.036,-0.0459,-0.0459,-0.0459,-0.0426,0,0,0,0,0,0,-0.0127,-0.0124,-0.0121,-0.0118,-0.0118,-0.0104,-0.0127,-0.0131,-0.0158,-0.0163,-0.0225,-0.024,-0.0265,-0.0313,-0.0324,-0.0359,-0.0363,-0.0459,-0.0459,-0.0459,-0.0427,-0.0425,-0.0424,0,0,0,0,0,-0.0127,-0.0118,-0.0119,-0.012,-0.011,-0.0104,-0.0104,-0.0125,-0.0157,-0.0154,-0.019,-0.024,-0.0324,-0.0315,-0.0329,-0.0367,-0.0459,-0.0459,-0.0459,-0.0428,-0.0426,-0.0424,0,0,0,0,0,0,-0.0104,-0.0121,-0.0123,-0.0114,-0.0114,-0.0114,-0.0128,-0.0139,-0.016,-0.0185,-0.0228,-0.0244,-0.0303,-0.0327,-0.0317,-0.0396,-0.0405,-0.0408,-0.0377,-0.0375,-0.0373,-0.0327,-0.0367,0,0,0,0,0,-0.0099,-0.0105,-0.011,-0.0098,-0.0113,-0.0123,-0.013,-0.0141,-0.0161,-0.0173,-0.0206,-0.0255,-0.0305,-0.0334,-0.0374,-0.0404,-0.0408,-0.0441,-0.0439,-0.0437,-0.0408,-0.0449,-0.0448,-0.046,-0.046,-0.046,0,0,-0.0081,-0.0096,-0.0094,-0.0097,-0.0109,-0.0104,-0.0132,-0.0151,-0.0141,-0.0192,-0.0202,-0.0257,-0.0313,-0.0348,-0.0378,-0.0378,-0.0431,-0.0438,-0.0436,-0.0407,-0.0449,-0.0448,-0.0447,-0.046,-0.046,-0.046,0,0,-0.0067,-0.0072,-0.0086,-0.0092,-0.0122,-0.0111,-0.0124,-0.0134,-0.0146,-0.0144,-0.0202,-0.0253,-0.0301,-0.0343,-0.0375,-0.0384,-0.0427,-0.0427,-0.0376,-0.0418,-0.0417,-0.0416,-0.0394,-0.0392,-0.0419,-0.0419,-0.0419,0,-0.006,-0.0053,-0.0082,-0.0101,-0.0096,-0.0118,-0.0109,-0.0113,-0.0125,-0.0137,-0.0146,-0.0221,-0.0287,-0.0339,-0.0346,-0.0382,-0.0391,-0.0383,-0.0414,-0.0414,-0.0413,-0.0392,-0.039,-0.0417,-0.0417,-0.0417,-0.0418,0,-0.0074,-0.0052,-0.0065,-0.008,-0.0071,-0.0071,-0.0077,-0.0083,-0.0092,-0.0093,-0.0135,-0.0182,-0.0224,-0.0274,-0.0312,-0.0362,-0.0362,-0.0414,-0.0416,-0.041,-0.0388,-0.0386,-0.0415,-0.0415,-0.0416,-0.0416,0,0,-0.0076,-0.0079,-0.0068,-0.0056,-0.0061,-0.0047,-0.0044,-0.0037,-0.0041,-0.0052,-0.0035,-0.0128,-0.016,-0.0195,-0.0265,-0.0298,-0.0316,-0.035,-0.0353,-0.0319,-0.0364,-0.0344,-0.0341,-0.0388,-0.0388,-0.0388,-0.0339,0,-0.0072,-0.0065,-0.0062,-0.0011,-0.0002,-0.0008,0.0003,-0.0001,0.0009,0.002,-0.0038,-0.0063,-0.013,-0.0161,-0.0201,-0.0297,-0.0314,-0.032,-0.0381,-0.038,-0.0359,-0.034,-0.0348,-0.0305,-0.0338,-0.0337,-0.0337,0,-0.0077,-0.0064,-0.0031,0.0025,0.0023,0.0041,0.0069,0.007,0.0057,0.0059,0.0046,0.0017,-0.0032,-0.0086,-0.0183,-0.0189,-0.0263,-0.0319,-0.032,-0.0307,-0.0359,-0.0323,-0.0301,-0.0334,-0.0335,-0.0335,-0.0335,0,-0.0054,-0.0015,0.0023,0.003,0.0056,0.0058,0.0066,0.0061,0.0077,0.0075,0.0107,0.0062,0.0039,-0.0043,-0.0147,-0.0179,-0.0226,-0.0292,-0.0323,-0.032,-0.0335,-0.0334,-0.0347,-0.0347,-0.0348,-0.0348,-0.0348,0,-0.0039,0.0002,0.0024,0.0034,0.0063,0.0064,0.0094,0.0081,0.0108,0.0152,0.0109,0.0165,0.0038,0.0008,-0.0093,-0.0175,-0.0188,-0.0283,-0.031,-0.0321,-0.0319,-0.0363,-0.0366,-0.0346,-0.0346,-0.0347,-0.0347,0,-0.0021,-0.0005,0.0031,0.0058,0.0067,0.0068,0.0115,0.0148,0.0138,0.0212,0.0217,0.0227,0.0185,0.0093,-0.0027,-0.0112,-0.0196,-0.0231,-0.0195,-0.0219,-0.0263,-0.0265,-0.0236,-0.0235,-0.0235,-0.0234,-0.0233,0,-0.0015,0.0,0.0039,0.0067,0.0073,0.0094,0.0124,0.0144,0.0213,0.0272,0.0334,0.0316,0.0357,0.0224,0.0052,-0.0076,-0.0137,-0.0177,-0.0251,-0.0224,-0.0254,-0.0257,-0.0259,-0.0245,-0.0245,-0.0244,-0.0244,0,0.0,0.0002,0.0033,0.0085,0.0125,0.0193,0.0249,0.0321,0.0368,0.0439,0.0549,0.058,0.0448,0.032,0.0112,0.001,-0.0154,-0.0172,-0.0172,-0.0274,-0.023,-0.026,-0.0263,-0.0241,-0.0241,-0.0241,-0.0241,-0.0242,0.0006,0.0031,0.0076,0.0134,0.0194,0.0308,0.0385,0.0485,0.0603,0.0715,0.0718,0.074,0.0541,0.0294,0.0115,-0.0096,-0.0103,-0.0199,-0.0201,-0.0204,-0.0216,-0.0174,-0.0171,-0.0171,-0.0171,-0.0171,-0.0171,0,0.0043,0.0086,0.0142,0.0231,0.0335,0.0349,0.05,0.0593,0.0759,0.0818,0.0887,0.0731,0.0562,0.0345,0.003,-0.0148,-0.0188,-0.0198,-0.023,-0.0232,-0.0234,-0.025,-0.0214,-0.0214,-0.0214,-0.0215,0,0,0.0072,0.0144,0.0193,0.0366,0.0433,0.0581,0.0681,0.0794,0.0869,0.0959,0.0952,0.0882,0.0622,0.0387,0.0129,-0.004,-0.009,-0.0069,-0.0021,-0.0033,-0.0032,-0.0226,-0.0251,0,0,0,0,0]}],[{"header":{"parameterUnit":"m.s-1","parameterCategory":2,"la1":30.2991,"la2":30.254,"lo1":-89.0895,"lo2":-89.0444,"dy":0.0017,"dx":0.0017,"nx":28,"ny":28,"refTime":"2024-10-13T21:00:00:Z","depth":"4","parameterNumber":2,"parameterNumberName":"U-component_of_CURRENTS"},"data":[0,0,0,0,0,0,0,0,0,0,0,0,0,0,0,0,0,0,0,0,0,0,0,0,0,0,0,0,0,0,0,0,0,0,0,0,0,0,0,0,0,0,0,0,0,0,0,0,0,0,0,0,0,0,0,0,0,0,-0.0181,-0.0183,0,-0.0268,-0.0268,-0.0269,-0.0296,-0.0296,-0.0296,-0.0296,-0.0416,-0.0418,-0.0421,0,0,0,0,0,0,0,0,0,0,0,0,0,-0.0149,-0.0148,-0.0181,-0.0183,-0.0185,-0.0268,-0.0268,-0.0269,-0.0295,-0.0296,-0.0296,-0.0296,-0.0415,-0.0418,-0.0422,0,0,0,0,0,0,0,0,0,0,0,0,0,-0.0185,-0.0148,-0.0181,-0.0214,-0.0218,-0.0268,-0.0268,-0.0269,-0.0295,-0.0296,-0.0296,-0.0297,-0.0413,-0.0418,-0.0422,-0.044,0,0,-0.0435,-0.0437,0,0,0,0,0,0,0,0,-0.0182,-0.0185,-0.0207,-0.0212,-0.0217,-0.0278,-0.0301,-0.033,-0.0295,-0.0258,-0.0296,-0.0297,-0.0377,-0.0385,-0.0389,-0.0446,-0.0451,-0.0436,-0.0438,-0.044,-0.0441,0,0,0,0,0,0,0,-0.018,-0.0182,-0.0208,-0.0209,-0.0215,-0.0263,-0.0266,-0.0307,-0.0309,-0.0261,-0.0265,-0.0287,-0.0379,-0.0384,-0.0392,-0.0453,-0.0436,-0.0439,-0.0442,-0.0444,-0.0646,-0.0649,0,0,0,0,0,0,-0.0178,-0.0179,-0.0205,-0.0211,-0.0209,-0.0263,-0.0267,-0.0252,-0.0308,-0.0319,-0.0287,-0.0288,-0.0377,-0.0387,-0.0396,-0.046,-0.044,-0.0444,-0.0447,-0.0643,-0.0647,-0.0649,0,0,0,0,0,0,-0.0176,-0.0178,-0.0202,-0.0206,-0.0213,-0.0263,-0.0246,-0.0253,-0.0274,-0.0328,-0.0338,-0.0302,-0.0377,-0.039,-0.0418,-0.0464,-0.0446,-0.045,-0.064,-0.0644,-0.0648,-0.0564,0,0,0,0,0,0,-0.0174,-0.0175,-0.0172,-0.0204,-0.0213,-0.0236,-0.0247,-0.0255,-0.0289,-0.0292,-0.0345,-0.0356,-0.0379,-0.0411,-0.0422,-0.0469,-0.0454,-0.0636,-0.0642,-0.0647,-0.0563,-0.0564,-0.0566,0,0,0,0,0,-0.0172,-0.0168,-0.017,-0.0175,-0.0201,-0.0237,-0.0245,-0.0279,-0.029,-0.0297,-0.0316,-0.0355,-0.0455,-0.0413,-0.0427,-0.0477,-0.0634,-0.064,-0.0646,-0.0562,-0.0564,-0.0566,0,0,0,0,0,0,-0.0163,-0.0173,-0.0175,-0.0175,-0.0206,-0.0244,-0.0258,-0.0285,-0.0306,-0.0313,-0.0348,-0.0359,-0.0417,-0.0462,-0.0416,-0.0562,-0.057,-0.0579,-0.0502,-0.0504,-0.0505,-0.0476,-0.0457,0,0,0,0,0,-0.0155,-0.0151,-0.0174,-0.0182,-0.0183,-0.022,-0.0242,-0.0273,-0.0299,-0.031,-0.0347,-0.0404,-0.0454,-0.0482,-0.0537,-0.0586,-0.0582,-0.0649,-0.065,-0.065,-0.0643,-0.0651,-0.065,-0.067,-0.067,-0.067,0,0,-0.017,-0.0167,-0.0174,-0.0181,-0.0194,-0.0212,-0.0231,-0.027,-0.0297,-0.0321,-0.0357,-0.0402,-0.0469,-0.0524,-0.0561,-0.0562,-0.0641,-0.0658,-0.0656,-0.0649,-0.0657,-0.0654,-0.0651,-0.0674,-0.0673,-0.0673,0,0,-0.0178,-0.0167,-0.0157,-0.0177,-0.0206,-0.0226,-0.0238,-0.028,-0.0298,-0.0339,-0.0373,-0.0421,-0.0507,-0.0547,-0.0582,-0.063,-0.0645,-0.0692,-0.0666,-0.0674,-0.067,-0.0667,-0.0624,-0.0618,-0.0692,-0.0692,-0.0692,0,-0.0187,-0.0174,-0.0171,-0.0168,-0.0191,-0.0227,-0.0241,-0.0265,-0.0324,-0.0332,-0.0352,-0.0462,-0.0517,-0.0567,-0.059,-0.0629,-0.0616,-0.0636,-0.0666,-0.0664,-0.0661,-0.0619,-0.0613,-0.0689,-0.0689,-0.0689,-0.069,0,-0.0194,-0.0188,-0.0185,-0.0179,-0.0201,-0.0229,-0.0257,-0.0282,-0.0314,-0.0345,-0.0401,-0.0454,-0.0511,-0.0568,-0.0587,-0.063,-0.0616,-0.0654,-0.0636,-0.0652,-0.0609,-0.0604,-0.0684,-0.0685,-0.0686,-0.0687,0,0,-0.0194,-0.0186,-0.0185,-0.0179,-0.0214,-0.0227,-0.0254,-0.0277,-0.0282,-0.0351,-0.0358,-0.0456,-0.0476,-0.0519,-0.0567,-0.0589,-0.0557,-0.0612,-0.0614,-0.0523,-0.0527,-0.0397,-0.0378,-0.0587,-0.0587,-0.0587,-0.0487,0,-0.0195,-0.0185,-0.0187,-0.02,-0.0197,-0.0227,-0.0238,-0.0274,-0.03,-0.0315,-0.0373,-0.0399,-0.046,-0.0472,-0.0507,-0.0556,-0.0547,-0.0578,-0.0568,-0.0567,-0.041,-0.037,-0.0586,-0.0483,-0.0482,-0.0481,-0.048,0,-0.0193,-0.0186,-0.0188,-0.0182,-0.0178,-0.0188,-0.0196,-0.0214,-0.024,-0.0253,-0.0285,-0.0323,-0.0362,-0.041,-0.0457,-0.0469,-0.0484,-0.0517,-0.0514,-0.0417,-0.0427,-0.0482,-0.0471,-0.0472,-0.0473,-0.0473,-0.0474,0,-0.0191,-0.018,-0.0175,-0.0187,-0.0194,-0.018,-0.0172,-0.0191,-0.0179,-0.0187,-0.0177,-0.0239,-0.0241,-0.0301,-0.0356,-0.0401,-0.0385,-0.0456,-0.034,-0.033,-0.0513,-0.0518,-0.0459,-0.0459,-0.0459,-0.046,-0.046,0,-0.0189,-0.0185,-0.0161,-0.017,-0.0137,-0.0146,-0.0111,-0.0109,-0.01,-0.0083,-0.0121,-0.0117,-0.0214,-0.0226,-0.0302,-0.027,-0.0327,-0.0303,-0.0292,-0.048,-0.0483,-0.0505,-0.0512,-0.0456,-0.0457,-0.0457,-0.0458,0,-0.0193,-0.0184,-0.0174,-0.0158,-0.0134,-0.0105,-0.0041,-0.0026,-0.0004,0.0022,0.0035,0.0005,0.0013,-0.0048,-0.0115,-0.0151,-0.0173,-0.0144,-0.0272,-0.0277,-0.0127,-0.0132,-0.001,-0.0004,0.0001,0.0005,0.0008,0,-0.0187,-0.0192,-0.0161,-0.0126,-0.0104,-0.0048,-0.0017,0.0022,0.0035,0.0084,0.0086,0.0141,0.0115,0.016,0.0065,0.0038,0.0008,0.0021,-0.0119,-0.0077,-0.008,-0.0092,-0.0103,0.0015,0.0017,0.0018,0.0019,0,-0.02,-0.0199,-0.019,-0.0122,-0.0065,-0.0015,0.0038,0.0069,0.0097,0.0127,0.0188,0.0219,0.0262,0.0223,0.0263,0.0192,0.0009,0.0068,0.0055,-0.0077,-0.0046,-0.0056,-0.0072,0.0035,0.0033,0.0031,0.003,0,-0.0207,-0.0196,-0.0184,-0.0112,-0.0047,-0.0003,0.0033,0.0086,0.013,0.0189,0.0208,0.0252,0.0272,0.0309,0.0294,0.0313,0.0263,0.0204,0.0182,0.0163,0.0168,0.023,0.0438,0,0,0,0,0,-0.0208,-0.02,-0.0164,-0.0097,-0.0043,-0.0003,0.0047,0.0066,0.0111,0.0178,0.021,0.0257,0.0325,0.0326,0.0372,0.032,0.0226,0.0369,0.0136,0.0125,0.0107,0.0093,0,0,0,0,0,0,-0.0203,-0.0192,-0.0182,-0.0112,-0.0058,-0.0006,0.0031,0.0056,0.0099,0.0158,0.0197,0.0262,0.0313,0.0312,0.0373,0.0377,0.0233,0.0406,0.0407,0.0136,0.0119,0.0104,0.0083,0,0,0,0,0]},{"header":{"parameterUnit":"m.s-1","parameterCategory":2,"la1":30.2991,"la2":30.254,"lo1":-89.0895,"lo2":-89.0444,"dy":0.0017,"dx":0.0017,"nx":28,"ny":28,"refTime":"2024-10-13T21:00:00:Z","depth":"4","parameterNumber":3,"parameterNumberName":"V-component_of_CURRENTS"},"data":[0,0,0,0,0,0,0,0,0,0,0,0,0,0,0,0,0,0,0,0,0,0,0,0,0,0,0,0,0,0,0,0,0,0,0,0,0,0,0,0,0,0,0,0,0,0,0,0,0,0,0,0,0,0,0,0,0,0,0.0434,0.0433,0,0.0413,0.0414,0.0414,0.0458,0.0459,0.046,0.0461,0.0453,0.0452,0.0451,0,0,0,0,0,0,0,0,0,0,0,0,0,0.0432,0.0433,0.0434,0.0433,0.0433,0.0413,0.0414,0.0414,0.0458,0.0459,0.046,0.0461,0.0453,0.0452,0.0451,0,0,0,0,0,0,0,0,0,0,0,0,0,0.043,0.0433,0.0434,0.0448,0.0449,0.0413,0.0414,0.0414,0.0458,0.0459,0.0461,0.0462,0.0454,0.0452,0.0451,0.0412,0,0,0.0446,0.0445,0,0,0,0,0,0,0,0,0.043,0.0431,0.0447,0.0447,0.0448,0.0435,0.041,0.0412,0.0457,0.046,0.0461,0.0463,0.0444,0.0443,0.0443,0.0412,0.0411,0.0445,0.0444,0.0444,0.0443,0,0,0,0,0,0,0,0.043,0.0431,0.0431,0.0446,0.0447,0.0428,0.0431,0.041,0.0449,0.046,0.0462,0.0451,0.0445,0.0445,0.0443,0.0411,0.0446,0.0444,0.0443,0.0442,0.0365,0.0364,0,0,0,0,0,0,0.0425,0.0432,0.0432,0.043,0.0436,0.0427,0.043,0.0442,0.0449,0.0449,0.0449,0.0453,0.0447,0.0445,0.0443,0.0418,0.0444,0.0442,0.0441,0.0366,0.0365,0.0363,0,0,0,0,0,0,0.0425,0.0426,0.0433,0.0425,0.0424,0.0425,0.0439,0.0441,0.0462,0.0439,0.0442,0.047,0.0448,0.0446,0.0427,0.0417,0.0442,0.044,0.0367,0.0365,0.0364,0.0354,0,0,0,0,0,0,0.0426,0.0427,0.0432,0.0425,0.0424,0.0417,0.0437,0.0439,0.0449,0.0454,0.0457,0.0457,0.0449,0.0429,0.0425,0.0415,0.0439,0.0368,0.0366,0.0364,0.0355,0.0352,0.0349,0,0,0,0,0,0.0426,0.0438,0.0434,0.0433,0.0433,0.0416,0.0415,0.0423,0.0449,0.0451,0.0448,0.0458,0.0414,0.0427,0.0422,0.0412,0.0369,0.0367,0.0365,0.0357,0.0353,0.0349,0,0,0,0,0,0,0.0443,0.0442,0.0438,0.045,0.0431,0.0422,0.0421,0.0432,0.0434,0.0453,0.0441,0.0439,0.0425,0.0412,0.0427,0.0382,0.0394,0.039,0.0389,0.0385,0.0382,0.0386,0.0437,0,0,0,0,0,0.0444,0.0454,0.0438,0.0442,0.0436,0.0431,0.0427,0.0441,0.0437,0.0443,0.0438,0.0428,0.0405,0.0393,0.038,0.0347,0.033,0.0337,0.0334,0.0332,0.033,0.0289,0.0282,0.0355,0.0355,0.0355,0,0,0.0448,0.0447,0.0452,0.0445,0.0435,0.0419,0.0436,0.0444,0.0427,0.0438,0.0424,0.0426,0.0397,0.0368,0.0359,0.0358,0.03,0.0329,0.0327,0.0327,0.0286,0.0279,0.0273,0.0354,0.0354,0.0354,0,0,0.0446,0.0463,0.046,0.0451,0.044,0.043,0.0436,0.0436,0.0435,0.0416,0.0419,0.0404,0.0378,0.0345,0.0324,0.0289,0.0293,0.0299,0.0275,0.0235,0.0229,0.0224,0.0187,0.0178,0.0287,0.0287,0.0287,0,0.0446,0.0451,0.0452,0.0443,0.0431,0.0435,0.0422,0.0409,0.0404,0.0387,0.0414,0.0369,0.0356,0.0292,0.029,0.0281,0.0271,0.0295,0.0232,0.0226,0.0221,0.0184,0.0175,0.0286,0.0286,0.0286,0.0286,0,0.0429,0.0441,0.0441,0.0425,0.0407,0.0412,0.0382,0.0371,0.0376,0.0363,0.0332,0.0315,0.029,0.0279,0.0277,0.0228,0.0239,0.0243,0.0245,0.0213,0.0176,0.0167,0.0285,0.0285,0.0285,0.0285,0,0,0.0421,0.0428,0.0431,0.0426,0.0413,0.0398,0.0354,0.0309,0.0286,0.0283,0.0246,0.0212,0.0239,0.0218,0.0216,0.0177,0.0132,0.0205,0.0203,0.0175,0.0057,0.0069,0.0059,0.0142,0.014,0.0139,0.0045,0,0.0406,0.041,0.0399,0.0383,0.0384,0.0359,0.031,0.0275,0.0252,0.0219,0.0193,0.0184,0.0201,0.0218,0.0176,0.0153,0.0109,0.0158,0.0087,0.0085,0.0104,0.0049,0.0134,0.0038,0.0036,0.0034,0.0033,0,0.0388,0.0402,0.041,0.0379,0.037,0.0362,0.0298,0.0259,0.0198,0.0187,0.0168,0.0166,0.0121,0.0156,0.0071,0.0114,0.0089,0.0061,0.0057,0.0067,0.0079,0.0077,0.0015,0.0017,0.0018,0.0019,0.002,0,0.0398,0.0394,0.041,0.0412,0.0383,0.0372,0.0344,0.028,0.0249,0.0206,0.0194,0.0136,0.0131,0.0083,0.004,0.0068,-0.0057,-0.0036,-0.0065,-0.0065,-0.0039,-0.0032,-0.0107,-0.0107,-0.0107,-0.0106,-0.0106,0,0.0393,0.0401,0.0443,0.046,0.0463,0.0423,0.0406,0.0357,0.0311,0.0256,0.0223,0.0169,0.0122,0.0046,0.0013,-0.0061,-0.0083,-0.0082,-0.0094,-0.0043,-0.0035,-0.0047,-0.0038,-0.011,-0.0109,-0.0108,-0.0108,0,0.0403,0.0431,0.0464,0.0479,0.0488,0.0507,0.0486,0.0454,0.0409,0.0338,0.0336,0.0213,0.0112,0.0039,-0.0064,-0.0094,-0.0166,-0.0188,-0.0141,-0.0145,-0.014,-0.0131,-0.023,-0.023,-0.0231,-0.0231,-0.0231,0,0.0404,0.0437,0.0513,0.056,0.0589,0.0615,0.0606,0.0544,0.0475,0.0337,0.027,0.0183,0.0094,-0.0042,-0.012,-0.0204,-0.0202,-0.0242,-0.0178,-0.0154,-0.0156,-0.0146,-0.0137,-0.0232,-0.0232,-0.0232,-0.0232,0,0.0407,0.0465,0.0499,0.0632,0.0676,0.0667,0.063,0.0577,0.044,0.0413,0.0246,0.0171,0.0038,-0.0055,-0.0116,-0.0182,-0.0216,-0.0246,-0.0245,-0.0184,-0.0158,-0.0157,-0.0147,-0.0234,-0.0233,-0.0233,-0.0233,0,0.0411,0.0469,0.0566,0.0659,0.0737,0.07,0.0655,0.0545,0.0478,0.0289,0.023,0.0112,0.0039,-0.0051,-0.013,-0.0168,-0.0163,-0.0161,-0.0164,-0.0163,-0.0103,-0.0057,-0.0128,0,0,0,0,0,0.0419,0.0487,0.0574,0.0636,0.0712,0.0744,0.0653,0.0566,0.0412,0.0317,0.0278,0.0159,0.0049,-0.0029,-0.0058,-0.0139,-0.018,-0.0179,-0.018,-0.0242,-0.024,-0.0179,0,0,0,0,0,0,0.0419,0.0522,0.057,0.0629,0.0665,0.0678,0.0634,0.0498,0.0407,0.0288,0.0235,0.0183,0.0079,0.0107,-0.0036,-0.0062,-0.0065,-0.0237,-0.0238,-0.0243,-0.0241,-0.024,-0.0176,0,0,0,0,0]}]]